User: anonymous
Location: Unspecified
(0.0000°N, 0.0000°E)
Time: 09:59:23
(UTC+02:00)
Language:

CZ-4 R/B - Orbit

View from above orbital plane
View from above orbital plane
View from above satellite
View from above satellite

Ground track
Ground track

The orbit data is extracted from the following two-line orbital elements,

1 28059U 03049C   14294.65218256  .00000455  00000-0  12287-3 0  1950
2 28059 098.6840 137.7486 0049537 319.5635 080.7154 14.52176195582941
Epoch (UTC): 21 October 2014 15:39:08
Eccentricity: 0.0049537
inclination: 98.6840°
perigee height: 683 km
apogee height: 754 km
right ascension of ascending node: 137.7486°
argument of perigee: 319.5635°
revolutions per day: 14.52176195
mean anomaly at epoch: 80.7154°
orbit number at epoch: 58294

The dashed part of the orbit path shows where the satellite is in the earth's shadow,  

DLR